Location: Killarney
(45.9719°N, 81.5115°W)
Time: 08:27:20
(UTC-04:00)

ISS - Pass Details

Date: 25 April 2025
Orbit: 416 x 419 km, 51.6° (Epoch: 14 May)

Event Time Altitude Azimuth Distance (km) Brightness Sun altitude
Exits shadow 05:29:23 11° 266° (W) 1,450 -1.6 -9.1°
Maximum altitude 05:32:32 47° 341° (NNW) 565 -3.0 -8.6°
Drops below altitude 10° 05:35:47 10° 57° (ENE) 1,498 0.8 -8.1°
Sets 05:37:57 0° 63° (ENE) 2,364 2.7 -7.8°
